{"data":{"norad_id":56555,"intl_designator":"2023-065BE","name":"STARLINK-6252","alt_names":[],"object_type":"PAYLOAD","status":"ACTIVE","operator":null,"country":"US","launch_date":"2023-05-14","launch_site_code":"AFETR","launch_vehicle":null,"mission":null,"orbit_class":"UNKNOWN","rcs_meters":null,"size_class":null,"mass_kg":null,"dimensions":null,"purposes":["comms"],"wikipedia_slug":null,"has_3d_model":false,"image_url":null,"decayed_at":null,"tle_current":{"epoch":"2026-05-25T01:07:12.169632Z","epoch_age_seconds":71023,"freshness":"FRESH","line1":"1 56555U 23065BE  26145.04666863 -.00001004  00000+0 -26959-4 0  9990","line2":"2 56555  43.0022 152.0384 0001723 272.0733  87.9921 15.27570633168155","mean_motion":15.27570633,"eccentricity":0.0001723,"inclination_deg":43.0022,"raan_deg":152.0384,"arg_perigee_deg":272.0733,"mean_anomaly_deg":87.9921,"bstar":-2.6959e-5,"rev_number":16815,"period_min":94.26732675346,"perigee_km":481.89495715367,"apogee_km":484.25933154781,"semimajor_km":6861.2141443507,"source":"CELESTRAK","updated_at":"2026-05-25T13:38:18.117781Z"}}}